Location: Cointrin
(46.2167°N, 6.1167°E)
Time: 08:03:49
(UTC+00:00)

COSMOS 2428 - Pass Details

Date: 08 February 2023
Orbit: 843 x 858 km, 70.9° (Epoch: 27 March)

Event Time Altitude Azimuth Distance (km) Brightness Sun altitude
Rises 19:07:52 0° 220° (SW) 3,391 6.3 -24.2°
Reaches altitude 10° 19:10:22 10° 225° (SW) 2,459 5.6 -24.6°
Maximum altitude 19:15:52 52° 302° (WNW) 1,041 3.4 -25.5°
Enters shadow 19:20:24 15° 15° (NNE) 2,112 4.7 -26.3°
